When you browse on this site, cookies collect data to enhance your experience and personalize the content and advertising you see.
Visit our Privacy Policy to learn more. By continuing to use the site, you agree to this use of cookies and data.
  • In Sweden
  • List of Countries
  • For 7 days
  • Water Temperature
  • Weather Map
  • Weather Widgets
  • user-avatar
    Login

    Hourly Weather Óbarok

    Today, 20 February, Thursday

    Time Temperature Precipitation Wind Pressure Humidity
    00:00 +2°C° 0 mm 6 mps 740 mmHg 73%
    01:00 0°C° 0 mm 7 mps 741 mmHg 71%
    02:00 +1°C° 0 mm 6 mps 741 mmHg 72%
    03:00 -1°C° 0 mm 6 mps 741 mmHg 73%
    04:00 -1°C° 0 mm 6 mps 741 mmHg 74%
    05:00 -1°C° 0 mm 6 mps 741 mmHg 75%
    06:00 0°C° 0 mm 5 mps 741 mmHg 76%
    07:00 -1°C° 0 mm 5 mps 741 mmHg 78%
    08:00 0°C° 0 mm 5 mps 742 mmHg 73%
    09:00 +1°C° 0 mm 6 mps 742 mmHg 69%
    10:00 +2°C° 0 mm 6 mps 743 mmHg 64%
    11:00 +3°C° 0 mm 6 mps 743 mmHg 61%
    12:00 +5°C° 0 mm 5 mps 742 mmHg 58%
    13:00 +6°C° 0 mm 5 mps 742 mmHg 55%
    14:00 +6°C° 0 mm 5 mps 742 mmHg 54%
    15:00 +6°C° 0 mm 4 mps 742 mmHg 54%
    16:00 +5°C° 0 mm 4 mps 742 mmHg 54%
    17:00 +4°C° 0 mm 3 mps 742 mmHg 58%
    18:00 +4°C° 0 mm 2 mps 742 mmHg 62%
    19:00 +4°C° 0 mm 1 mps 742 mmHg 65%
    20:00 +4°C° 0 mm 1 mps 742 mmHg 66%
    21:00 +4°C° 0 mm 1 mps 742 mmHg 66%
    22:00 +3°C° 0 mm 1 mps 742 mmHg 67%
    23:00 +3°C° 0 mm 1 mps 742 mmHg 67%

    Tomorrow, 21 February, Friday

    Time Temperature Precipitation Wind Pressure Humidity
    00:00 +3°C° 0 mm 1 mps 742 mmHg 67%
    01:00 +3°C° 0 mm 1 mps 742 mmHg 68%
    02:00 +2°C° 0 mm 2 mps 741 mmHg 69%
    03:00 +1°C° 0 mm 2 mps 741 mmHg 71%
    04:00 0°C° 0 mm 3 mps 741 mmHg 72%
    05:00 +1°C° 0 mm 3 mps 741 mmHg 72%
    06:00 +1°C° 0 mm 3 mps 741 mmHg 72%
    07:00 0°C° 0 mm 4 mps 741 mmHg 72%
    14:00 +5°C° 0 mm 8 mps 743 mmHg 44%
    15:00 +5°C° 0 mm 8 mps 744 mmHg 45%
    16:00 +5°C° 0 mm 7 mps 744 mmHg 46%
    17:00 +4°C° 0 mm 6 mps 744 mmHg 51%
    18:00 +3°C° 0 mm 5 mps 745 mmHg 56%
    19:00 +3°C° 0 mm 3 mps 746 mmHg 61%
    20:00 +2°C° 0 mm 3 mps 746 mmHg 64%
    21:00 +2°C° 0 mm 3 mps 746 mmHg 66%
    22:00 +1°C° 0 mm 3 mps 746 mmHg 68%
    23:00 +1°C° 0 mm 3 mps 747 mmHg 71%

    Day after tomorrow, 22 February, Saturday

    Time Temperature Precipitation Wind Pressure Humidity
    00:00 0°C° 0 mm 3 mps 747 mmHg 73%
    01:00 +1°C° 0 mm 2 mps 747 mmHg 75%
    02:00 +1°C° 0 mm 2 mps 747 mmHg 75%
    03:00 +1°C° 0 mm 2 mps 747 mmHg 76%
    04:00 -1°C° 0 mm 2 mps 747 mmHg 77%
    05:00 +2°C° 0 mm 1 mps 747 mmHg 76%
    06:00 +2°C° 0 mm 1 mps 747 mmHg 75%
    07:00 +2°C° 0 mm 1 mps 747 mmHg 74%
    08:00 +3°C° 0 mm 1 mps 747 mmHg 69%
    09:00 +4°C° 0 mm 2 mps 748 mmHg 64%
    10:00 +5°C° 0 mm 2 mps 748 mmHg 59%
    11:00 +5°C° 0 mm 3 mps 747 mmHg 56%
    12:00 +6°C° 0 mm 4 mps 747 mmHg 54%
    13:00 +7°C° 0 mm 4 mps 747 mmHg 52%
    14:00 +7°C° 0 mm 5 mps 747 mmHg 52%
    15:00 +7°C° 0 mm 5 mps 746 mmHg 53%
    16:00 +7°C° 0 mm 5 mps 745 mmHg 53%
    17:00 +6°C° 0 mm 4 mps 745 mmHg 57%
    18:00 +5°C° 0 mm 4 mps 745 mmHg 61%
    19:00 +4°C° 0 mm 4 mps 745 mmHg 64%
    20:00 +4°C° 0 mm 3 mps 745 mmHg 65%
    21:00 +4°C° 0 mm 3 mps 744 mmHg 65%
    22:00 +4°C° 0 mm 3 mps 744 mmHg 66%
    23:00 +4°C° 0 mm 3 mps 744 mmHg 66%

    23 February, Sunday

    Time Temperature Precipitation Wind Pressure Humidity
    00:00 +4°C° 0 mm 2 mps 743 mmHg 67%
    01:00 +4°C° 0 mm 2 mps 743 mmHg 68%
    02:00 +4°C° 0 mm 2 mps 743 mmHg 68%
    03:00 +4°C° 0 mm 2 mps 742 mmHg 68%
    04:00 +4°C° 0 mm 2 mps 742 mmHg 69%
    05:00 +4°C° 0.1 mm 2 mps 742 mmHg 69%
    06:00 +4°C° 0.1 mm 2 mps 742 mmHg 69%
    07:00 +5°C° 0.1 mm 2 mps 742 mmHg 70%
    08:00 +5°C° 0.3 mm 3 mps 742 mmHg 70%
    09:00 +6°C° 0.3 mm 5 mps 742 mmHg 70%
    10:00 +8°C° 0.3 mm 6 mps 742 mmHg 71%
    11:00 +9°C° 0 mm 7 mps 742 mmHg 66%
    12:00 +10°C° 0 mm 8 mps 742 mmHg 61%
    13:00 +11°C° 0 mm 9 mps 741 mmHg 57%
    14:00 +10°C° 0 mm 8 mps 741 mmHg 60%
    15:00 +10°C° 0 mm 7 mps 740 mmHg 64%
    16:00 +9°C° 0 mm 6 mps 740 mmHg 67%
    17:00 +8°C° 0.4 mm 6 mps 739 mmHg 69%
    18:00 +7°C° 0.4 mm 5 mps 739 mmHg 72%
    19:00 +7°C° 0.4 mm 5 mps 738 mmHg 74%
    20:00 +7°C° 0.2 mm 5 mps 737 mmHg 72%
    21:00 +7°C° 0.2 mm 5 mps 737 mmHg 71%
    22:00 +7°C° 0.2 mm 5 mps 736 mmHg 69%
    23:00 +7°C° 0.1 mm 6 mps 735 mmHg 68%

    24 February, Monday

    Time Temperature Precipitation Wind Pressure Humidity
    00:00 +8°C° 0.1 mm 7 mps 735 mmHg 68%
    01:00 +7°C° 0.1 mm 8 mps 735 mmHg 67%
    02:00 +6°C° 0.4 mm 8 mps 735 mmHg 69%
    03:00 +5°C° 0.4 mm 8 mps 736 mmHg 70%
    04:00 +5°C° 0.4 mm 7 mps 737 mmHg 71%
    05:00 +4°C° 0 mm 7 mps 738 mmHg 72%
    06:00 +3°C° 0 mm 6 mps 739 mmHg 72%
    07:00 +2°C° 0 mm 5 mps 741 mmHg 73%
    08:00 +3°C° 0 mm 6 mps 741 mmHg 68%
    09:00 +3°C° 0 mm 6 mps 742 mmHg 63%
    10:00 +3°C° 0 mm 7 mps 743 mmHg 58%
    11:00 +4°C° 0 mm 6 mps 743 mmHg 56%
    12:00 +5°C° 0 mm 6 mps 743 mmHg 54%
    13:00 +5°C° 0 mm 6 mps 744 mmHg 53%
    14:00 +6°C° 0 mm 5 mps 743 mmHg 53%
    15:00 +6°C° 0 mm 5 mps 743 mmHg 53%
    16:00 +6°C° 0 mm 5 mps 743 mmHg 53%
    17:00 +5°C° 0 mm 4 mps 743 mmHg 56%
    18:00 +4°C° 0 mm 3 mps 743 mmHg 59%
    19:00 +6°C° 0 mm 1 mps 743 mmHg 63%
    20:00 +4°C° 0 mm 2 mps 743 mmHg 64%
    21:00 +4°C° 0 mm 2 mps 742 mmHg 65%
    22:00 +4°C° 0 mm 2 mps 742 mmHg 67%
    23:00 +4°C° 0 mm 2 mps 742 mmHg 70%

    25 February, Tuesday

    Time Temperature Precipitation Wind Pressure Humidity
    00:00 +3°C° 0 mm 3 mps 741 mmHg 74%
    01:00 +4°C° 0 mm 3 mps 740 mmHg 77%
    02:00 +4°C° 0.1 mm 3 mps 740 mmHg 76%
    03:00 +4°C° 0.1 mm 3 mps 739 mmHg 75%
    04:00 +4°C° 0.1 mm 3 mps 739 mmHg 74%
    05:00 +4°C° 0.1 mm 3 mps 739 mmHg 74%
    06:00 +4°C° 0.1 mm 3 mps 739 mmHg 73%
    07:00 +4°C° 0.1 mm 3 mps 738 mmHg 73%
    08:00 +5°C° 0 mm 3 mps 738 mmHg 71%
    09:00 +7°C° 0 mm 3 mps 738 mmHg 70%
    10:00 +8°C° 0 mm 3 mps 738 mmHg 69%
    11:00 +10°C° 0 mm 3 mps 738 mmHg 65%
    12:00 +11°C° 0 mm 3 mps 737 mmHg 62%
    13:00 +12°C° 0 mm 3 mps 737 mmHg 59%
    14:00 +12°C° 0 mm 3 mps 736 mmHg 62%
    15:00 +12°C° 0 mm 3 mps 736 mmHg 65%
    16:00 +12°C° 0 mm 3 mps 735 mmHg 67%
    17:00 +12°C° 0 mm 2 mps 735 mmHg 72%
    18:00 +10°C° 0 mm 2 mps 735 mmHg 77%
    19:00 +9°C° 0 mm 2 mps 735 mmHg 82%
    20:00 +9°C° 0 mm 2 mps 734 mmHg 82%
    21:00 +9°C° 0 mm 2 mps 734 mmHg 83%
    22:00 +8°C° 0 mm 2 mps 734 mmHg 83%
    23:00 +8°C° 0 mm 2 mps 734 mmHg 85%
    Show more